| time (UTC) | temp C | wind direction | speed KPH | gust KPH | rain 1hr cm | rain 24hr cm | rain mn cm | humidity % | barometer mb |
| 20260901000028 | 26 | 148 | 0.0 | 0.0 | 0.00 | 0.00 | 0.00 | 86 | 1018.9 |
| 20260831234533 | 27 | 5 | 0.0 | 0.0 | 0.00 | 0.00 | 0.00 | 84 | 1018.9 |
| 20260831233034 | 27 | 5 | 0.0 | 0.0 | 0.00 | 0.00 | 0.00 | 80 | 1018.8 |
| 20260831231530 | 27 | 5 | 0.0 | 0.0 | 0.00 | 0.00 | 0.00 | 80 | 1018.8 |
| 20260831230023 | 28 | 5 | 0.0 | 0.0 | 0.00 | 0.00 | 0.00 | 77 | 1019.1 |
| 20260831224517 | 28 | 5 | 0.0 | 0.0 | 0.00 | 0.00 | 0.00 | 78 | 1019.2 |
| 20260831223019 | 28 | 5 | 0.0 | 0.0 | 0.00 | 0.00 | 0.00 | 76 | 1019.2 |
| 20260831221542 | 29 | 9 | 0.0 | 0.0 | 0.00 | 0.00 | 0.00 | 72 | 1019.3 |
| 20260831220031 | 30 | 5 | 0.0 | 3.2 | 0.00 | 0.00 | 0.00 | 71 | 1019.3 |
| 20260831214536 | 30 | 15 | 1.6 | 4.8 | 0.00 | 0.00 | 0.00 | 68 | 1019.4 |
| 20260831213026 | 30 | 32 | 1.6 | 4.8 | 0.00 | 0.00 | 0.00 | 67 | 1019.4 |
| 20260831211524 | 30 | 150 | 0.0 | 1.6 | 0.00 | 0.00 | 0.00 | 64 | 1019.3 |
| 20260831210016 | 30 | 128 | 0.0 | 1.6 | 0.00 | 0.00 | 0.00 | 67 | 1019.5 |
| 20260831204528 | 30 | 128 | 0.0 | 1.6 | 0.00 | 0.00 | 0.00 | 67 | 1019.6 |
| 20260831203040 | 30 | 169 | 0.0 | 0.0 | 0.00 | 0.00 | 0.00 | 66 | 1019.6 |
| 20260831201537 | 30 | 169 | 0.0 | 0.0 | 0.00 | 0.00 | 0.00 | 65 | 1019.7 |
| 20260831200035 | 32 | 169 | 0.0 | 3.2 | 0.00 | 0.00 | 0.00 | 58 | 1019.8 |
| 20260831194556 | 32 | 38 | 1.6 | 4.8 | 0.00 | 0.00 | 0.00 | 55 | 1020.0 |
| 20260831193023 | 32 | 166 | 3.2 | 6.4 | 0.00 | 0.00 | 0.00 | 61 | 1020.0 |
| 20260831191538 | 31 | 316 | 1.6 | 4.8 | 0.00 | 0.00 | 0.00 | 57 | 1020.3 |
| 20260831190018 | 31 | 337 | 3.2 | 8.0 | 0.00 | 0.00 | 0.00 | 54 | 1020.1 |
| 20260831184544 | 31 | 31 | 1.6 | 3.2 | 0.00 | 0.00 | 0.00 | 57 | 1020.2 |
| 20260831183031 | 32 | 156 | 0.0 | 3.2 | 0.00 | 0.00 | 0.00 | 59 | 1020.4 |
| 20260831181535 | 31 | 181 | 1.6 | 8.0 | 0.00 | 0.00 | 0.00 | 61 | 1020.6 |
| 20260831180004 | 31 | 163 | 0.0 | 3.2 | 0.00 | 0.00 | 0.00 | 58 | 1020.7 |
| 20260831174503 | 31 | 251 | 0.0 | 6.4 | 0.00 | 0.00 | 0.00 | 58 | 1020.9 |
| 20260831173031 | 31 | 188 | 3.2 | 8.0 | 0.00 | 0.00 | 0.00 | 58 | 1020.9 |
| 20260831171538 | 31 | 147 | 3.2 | 8.0 | 0.00 | 0.00 | 0.00 | 66 | 1021.1 |
| 20260831170031 | 31 | 184 | 0.0 | 3.2 | 0.00 | 0.00 | 0.00 | 65 | 1021.1 |
| 20260831164535 | 31 | 315 | 3.2 | 6.4 | 0.00 | 0.00 | 0.00 | 63 | 1021.3 |
| 20260831163010 | 30 | 5 | 0.0 | 1.6 | 0.00 | 0.00 | 0.00 | 65 | 1021.4 |
| 20260831161507 | 30 | 165 | 0.0 | 4.8 | 0.00 | 0.00 | 0.00 | 64 | 1021.5 |
| 20260831160034 | 30 | 146 | 0.0 | 3.2 | 0.00 | 0.00 | 0.00 | 67 | 1021.6 |
| 20260831154615 | 28 | 9 | 0.0 | 4.8 | 0.00 | 0.00 | 0.00 | 71 | 1021.5 |
| 20260831153020 | 28 | 352 | 0.0 | 3.2 | 0.00 | 0.00 | 0.00 | 72 | 1021.5 |
| 20260831151533 | 27 | 350 | 0.0 | 3.2 | 0.00 | 0.00 | 0.00 | 73 | 1021.5 |
| 20260831150014 | 27 | 23 | 0.0 | 3.2 | 0.00 | 0.00 | 0.00 | 76 | 1021.5 |
| 20260831144523 | 26 | 86 | 0.0 | 3.2 | 0.00 | 0.00 | 0.00 | 81 | 1021.7 |
| 20260831143008 | 25 | 330 | 0.0 | 4.8 | 0.00 | 0.00 | 0.00 | 84 | 1021.6 |
| 20260831141531 | 25 | 195 | 0.0 | 0.0 | 0.00 | 0.00 | 0.00 | 86 | 1021.6 |
| 20260831140032 | 23 | 321 | 0.0 | 3.2 | 0.00 | 0.00 | 0.00 | 89 | 1021.6 |
| 20260831134528 | 22 | 104 | 0.0 | 0.0 | 0.00 | 0.00 | 0.00 | 94 | 1021.6 |
| 20260831133020 | 21 | 105 | 0.0 | 0.0 | 0.00 | 0.00 | 0.00 | 97 | 1021.5 |
| 20260831131517 | 21 | 105 | 0.0 | 0.0 | 0.00 | 0.00 | 0.00 | 97 | 1021.6 |
| 20260831130010 | 20 | 22 | 0.0 | 0.0 | 0.00 | 0.00 | 0.00 | 97 | 1021.6 |
| 20260831124510 | 19 | 22 | 0.0 | 0.0 | 0.00 | 0.00 | 0.00 | 97 | 1021.7 |
| 20260831123030 | 18 | 146 | 0.0 | 3.2 | 0.00 | 0.00 | 0.00 | 97 | 1021.4 |
| 20260831121528 | 17 | 146 | 0.0 | 0.0 | 0.00 | 0.00 | 0.00 | 97 | 1021.3 |
| 20260831120032 | 17 | 146 | 0.0 | 0.0 | 0.00 | 0.00 | 0.00 | 97 | 1021.4 |
| 20260831114526 | 17 | 146 | 0.0 | 0.0 | 0.00 | 0.00 | 0.00 | 96 | 1021.5 |
| 20260831113023 | 17 | 146 | 0.0 | 0.0 | 0.00 | 0.00 | 0.00 | 96 | 1021.4 |
| 20260831111526 | 17 | 146 | 0.0 | 0.0 | 0.00 | 0.00 | 0.00 | 96 | 1021.4 |
| 20260831110012 | 17 | 146 | 0.0 | 0.0 | 0.00 | 0.00 | 0.00 | 96 | 1021.3 |
| 20260831104539 | 17 | 146 | 0.0 | 0.0 | 0.00 | 0.00 | 0.00 | 96 | 1021.1 |
| 20260831103052 | 17 | 146 | 0.0 | 0.0 | 0.00 | 0.00 | 0.00 | 96 | 1020.9 |
| 20260831101530 | 17 | 146 | 0.0 | 0.0 | 0.00 | 0.00 | 0.00 | 96 | 1020.9 |
| 20260831100035 | 17 | 146 | 0.0 | 0.0 | 0.00 | 0.00 | 0.00 | 96 | 1020.7 |
| 20260831094527 | 17 | 146 | 0.0 | 0.0 | 0.00 | 0.00 | 0.00 | 96 | 1020.7 |
| 20260831093019 | 17 | 146 | 0.0 | 0.0 | 0.00 | 0.00 | 0.00 | 96 | 1020.6 |
| 20260831091511 | 17 | 146 | 0.0 | 0.0 | 0.00 | 0.00 | 0.00 | 96 | 1020.6 |
| 20260831090011 | 18 | 146 | 0.0 | 0.0 | 0.00 | 0.00 | 0.00 | 96 | 1020.6 |
| 20260831084508 | 18 | 146 | 0.0 | 0.0 | 0.00 | 0.00 | 0.00 | 96 | 1020.5 |
| 20260831083029 | 18 | 146 | 0.0 | 0.0 | 0.00 | 0.00 | 0.00 | 96 | 1020.6 |
| 20260831081525 | 18 | 146 | 0.0 | 0.0 | 0.00 | 0.00 | 0.00 | 96 | 1020.6 |
| 20260831080045 | 18 | 146 | 0.0 | 0.0 | 0.00 | 0.00 | 0.00 | 96 | 1020.6 |
| 20260831074519 | 18 | 146 | 0.0 | 0.0 | 0.00 | 0.00 | 0.00 | 96 | 1020.6 |
| 20260831073026 | 18 | 146 | 0.0 | 0.0 | 0.00 | 0.00 | 0.00 | 96 | 1020.6 |
| 20260831071512 | 18 | 146 | 0.0 | 0.0 | 0.00 | 0.00 | 0.00 | 95 | 1020.6 |
| 20260831070008 | 18 | 146 | 0.0 | 0.0 | 0.00 | 0.00 | 0.00 | 95 | 1020.7 |
| 20260831064533 | 18 | 146 | 0.0 | 0.0 | 0.00 | 0.00 | 0.00 | 96 | 1020.8 |
| 20260831063028 | 18 | 146 | 0.0 | 0.0 | 0.00 | 0.00 | 0.00 | 95 | 1020.9 |
| 20260831061528 | 18 | 146 | 0.0 | 0.0 | 0.00 | 0.00 | 0.00 | 95 | 1021.0 |
| 20260831060023 | 19 | 146 | 0.0 | 0.0 | 0.00 | 0.00 | 0.00 | 95 | 1021.0 |
| 20260831054523 | 19 | 146 | 0.0 | 0.0 | 0.00 | 0.00 | 0.00 | 95 | 1021.3 |
| 20260831053015 | 19 | 146 | 0.0 | 0.0 | 0.00 | 0.00 | 0.00 | 95 | 1021.1 |
| 20260831051534 | 19 | 146 | 0.0 | 0.0 | 0.00 | 0.00 | 0.00 | 95 | 1021.3 |
| 20260831050031 | 19 | 146 | 0.0 | 0.0 | 0.00 | 0.00 | 0.00 | 95 | 1021.2 |
| 20260831044531 | 20 | 146 | 0.0 | 0.0 | 0.00 | 0.00 | 0.00 | 95 | 1021.0 |
| 20260831043027 | 20 | 146 | 0.0 | 0.0 | 0.00 | 0.00 | 0.00 | 95 | 1021.1 |
| 20260831041523 | 20 | 146 | 0.0 | 0.0 | 0.00 | 0.00 | 0.00 | 95 | 1021.3 |
| 20260831040035 | 20 | 146 | 0.0 | 0.0 | 0.00 | 0.00 | 0.00 | 95 | 1021.6 |
| 20260831034512 | 20 | 146 | 0.0 | 0.0 | 0.00 | 0.00 | 0.00 | 94 | 1021.4 |
| 20260831033035 | 20 | 146 | 0.0 | 0.0 | 0.00 | 0.00 | 0.00 | 95 | 1021.8 |
| 20260831031540 | 20 | 146 | 0.0 | 4.8 | 0.00 | 0.00 | 0.00 | 94 | 1021.7 |
| 20260831030031 | 20 | 74 | 0.0 | 0.0 | 0.00 | 0.00 | 0.00 | 94 | 1021.6 |
| 20260831024542 | 21 | 74 | 0.0 | 0.0 | 0.00 | 0.00 | 0.00 | 94 | 1021.5 |
| 20260831023025 | 21 | 74 | 0.0 | 0.0 | 0.00 | 0.00 | 0.00 | 94 | 1021.7 |
| 20260831021518 | 21 | 23 | 0.0 | 0.0 | 0.00 | 0.00 | 0.00 | 94 | 1021.7 |
| 20260831020014 | 21 | 83 | 0.0 | 0.0 | 0.00 | 0.00 | 0.00 | 94 | 1021.7 |
| 20260831014534 | 21 | 83 | 0.0 | 0.0 | 0.00 | 0.00 | 0.00 | 93 | 1021.5 |
| 20260831013035 | 21 | 39 | 0.0 | 0.0 | 0.00 | 0.00 | 0.00 | 92 | 1021.4 |
| 20260831011530 | 22 | 148 | 0.0 | 0.0 | 0.00 | 0.00 | 0.00 | 92 | 1021.1 |
| 20260831010035 | 22 | 148 | 0.0 | 0.0 | 0.00 | 0.00 | 0.00 | 92 | 1021.0 |
| 20260831004527 | 22 | 148 | 0.0 | 0.0 | 0.00 | 0.00 | 0.00 | 91 | 1020.8 |
| 20260831003023 | 23 | 148 | 0.0 | 0.0 | 0.00 | 0.00 | 0.00 | 90 | 1020.7 |
| 20260831001517 | 23 | 148 | 0.0 | 0.0 | 0.00 | 0.00 | 0.00 | 88 | 1020.5 |